�N����,����,�~����,�C��,���x,�C��,����,���ϕ���,�ő�u�ԕ���,�ő厞����,���˗�,�I�_���x,�n�����x,�ő啗���N��,DTYPE
"17/06/13","00:10",0.0,13.7,87.9,1009.5,317.8,1.6,2.6,327.8,0.00,11.8,18.4,"00:07:36",1
"17/06/13","00:20",0.0,13.9,87.3,1009.5,330.2,1.3,2.0,307.3,0.00,11.9,18.6,"00:10:56",1
"17/06/13","00:30",0.0,13.9,87.0,1009.5,345.9,0.6,1.3,330.3,0.00,11.8,18.4,"00:21:20",1
"17/06/13","00:40",0.0,13.6,87.0,1009.5,328.1,1.2,1.8,327.8,0.00,11.5,18.3,"00:30:08",1
"17/06/13","00:50",0.0,13.3,87.1,1009.5,322.3,1.2,1.7,323.9,0.00,11.2,18.4,"00:40:32",1
"17/06/13","01:00",0.0,13.0,88.4,1009.3,301.0,1.1,1.6,274.7,0.00,11.2,18.2,"00:59:52",1
"17/06/13","01:10",0.0,12.8,88.6,1009.3,298.8,1.1,1.6,269.7,0.00,11.0,18.4,"01:00:16",1
"17/06/13","01:20",0.0,12.5,89.3,1009.5,308.3,1.3,1.7,315.9,0.00,10.8,18.1,"01:15:52",1
"17/06/13","01:30",0.0,12.4,89.9,1009.3,307.8,1.2,1.8,320.6,0.00,10.8,18.0,"01:27:20",1
"17/06/13","01:40",0.0,12.3,90.7,1009.0,305.3,1.2,1.7,318.7,0.00,10.9,17.9,"01:38:00",1
"17/06/13","01:50",0.0,12.1,90.6,1009.0,293.7,0.8,1.7,320.1,0.00,10.7,18.0,"01:45:44",1
"17/06/13","02:00",0.0,12.0,91.7,1009.0,314.8,1.6,2.2,322.4,0.00,10.7,17.8,"01:58:24",1
"17/06/13","02:10",0.0,12.1,92.2,1009.0,307.2,1.6,2.0,325.6,0.00,10.9,17.8,"02:05:36",1
"17/06/13","02:20",0.0,12.1,92.1,1009.0,315.1,1.5,2.5,334.9,0.00,10.9,17.6,"02:14:24",1
"17/06/13","02:30",0.0,12.0,91.9,1008.8,300.4,1.0,1.6,314.7,0.00,10.8,17.6,"02:20:56",1
"17/06/13","02:40",0.0,11.9,92.6,1008.6,311.9,1.5,2.2,333.1,0.00,10.8,17.4,"02:38:08",1
"17/06/13","02:50",0.0,12.0,92.2,1008.8,290.5,1.1,2.0,312.9,0.00,10.8,17.5,"02:44:08",1
"17/06/13","03:00",0.0,11.9,92.2,1009.0,288.3,0.6,1.0,297.0,0.00,10.7,17.4,"02:52:24",1
"17/06/13","03:10",0.0,12.0,92.9,1009.0,329.7,0.8,2.0,323.9,0.00,10.9,17.4,"03:09:46",1
"17/06/13","03:20",0.0,12.1,92.9,1009.0,323.8,2.0,2.6,338.8,0.00,11.0,17.4,"03:14:50",1
"17/06/13","03:30",0.0,12.4,93.1,1009.0,326.1,2.0,2.6,326.0,0.00,11.4,17.4,"03:25:28",1
"17/06/13","03:40",0.0,12.5,92.4,1009.0,299.2,1.7,3.3,321.9,0.00,11.3,17.3,"03:31:28",1
"17/06/13","03:50",0.0,12.5,92.4,1009.0,324.7,2.1,3.2,322.5,0.00,11.3,17.1,"03:41:28",1
"17/06/13","04:00",0.0,12.6,92.3,1009.5,324.5,1.3,1.9,326.4,0.00,11.4,17.2,"03:54:48",1
"17/06/13","04:10",0.0,12.4,92.1,1009.3,311.1,1.1,2.4,327.8,0.00,11.2,17.2,"04:02:08",1
"17/06/13","04:20",0.0,12.4,92.1,1009.7,326.7,1.8,2.7,327.7,0.00,11.2,17.2,"04:15:52",1
"17/06/13","04:30",0.0,12.3,92.0,1009.7,328.1,2.0,3.3,340.0,0.00,11.1,17.2,"04:26:32",1
"17/06/13","04:40",0.0,12.3,92.0,1009.7,330.0,2.1,3.1,338.0,0.00,11.1,17.2,"04:31:12",1
"17/06/13","04:50",0.0,12.4,92.0,1009.5,332.4,2.0,3.5,341.3,0.00,11.2,16.9,"04:47:52",1
"17/06/13","05:00",0.0,12.5,91.7,1009.5,333.7,2.3,3.2,339.7,0.00,11.2,17.2,"04:50:48",1
"17/06/13","05:10",0.0,12.4,91.5,1009.5,331.7,1.8,2.9,326.5,0.00,11.1,17.2,"05:04:40",1
"17/06/13","05:20",0.0,12.5,91.5,1009.5,330.8,2.3,4.0,334.4,0.00,11.2,17.0,"05:15:12",1
"17/06/13","05:30",0.0,12.6,91.1,1009.7,332.3,2.3,3.7,344.4,0.00,11.2,17.0,"05:24:58",1
"17/06/13","05:40",0.0,12.6,91.0,1009.5,328.0,1.8,2.8,330.6,0.00,11.2,17.0,"05:37:20",1
"17/06/13","05:50",0.0,12.6,91.2,1009.5,329.1,1.5,2.4,325.0,0.00,11.2,17.0,"05:41:28",1
"17/06/13","06:00",0.0,12.9,91.2,1009.5,324.0,0.7,1.9,342.9,0.01,11.5,17.0,"05:50:16",1
"17/06/13","06:10",0.0,13.5,90.4,1009.3,337.7,0.8,1.7,336.7,0.02,12.0,17.0,"06:08:08",1
"17/06/13","06:20",0.0,14.3,89.4,1009.5,325.5,1.1,1.2,329.3,0.03,12.6,16.9,"06:11:28",1
"17/06/13","06:30",0.0,15.2,87.0,1009.7,334.0,0.5,1.3,338.3,0.05,13.1,16.9,"06:29:52",1
"17/06/13","06:40",0.0,16.1,84.5,1010.0,311.6,0.8,2.2,335.6,0.07,13.5,17.2,"06:32:48",1
"17/06/13","06:50",0.0,16.4,80.4,1010.2,327.4,0.8,1.7,327.5,0.09,13.1,17.2,"06:46:56",1
"17/06/13","07:00",0.0,16.5,78.7,1010.2,338.6,1.0,2.1,347.1,0.11,12.8,17.4,"06:57:36",1
"17/06/13","07:10",0.0,17.2,75.6,1010.7,329.3,0.3,1.4,333.1,0.14,12.9,17.6,"07:00:56",1
"17/06/13","07:20",0.0,17.5,74.0,1010.2,28.5,0.5,1.2,64.6,0.16,12.9,17.7,"07:19:20",1
"17/06/13","07:30",0.0,18.3,71.1,1010.2,0.7,0.5,1.3,338.4,0.19,13.0,17.8,"07:24:08",1
"17/06/13","07:40",0.0,18.2,71.3,1010.0,200.3,0.6,1.1,23.0,0.22,13.0,17.9,"07:32:16",1
"17/06/13","07:50",0.0,18.7,70.7,1009.5,158.3,0.6,1.7,128.8,0.24,13.3,18.2,"07:42:32",1
"17/06/13","08:00",0.0,19.0,65.8,1009.7,26.0,0.6,1.4,305.0,0.25,12.5,18.5,"07:59:28",1
"17/06/13","08:10",0.0,19.5,65.7,1009.3,174.9,0.7,2.5,213.9,0.28,13.0,18.5,"08:04:00",1
"17/06/13","08:20",0.0,19.9,64.4,1009.3,160.6,1.0,2.0,140.0,0.32,13.0,18.7,"08:10:24",1
"17/06/13","08:30",0.0,19.7,64.1,1008.8,283.7,1.1,2.4,353.3,0.34,12.8,19.0,"08:25:36",1
"17/06/13","08:40",0.0,20.4,61.0,1008.8,26.7,1.1,2.9,337.4,0.36,12.7,19.2,"08:31:36",1
"17/06/13","08:50",0.0,20.9,60.2,1008.6,146.7,1.1,2.5,170.0,0.46,12.9,19.5,"08:41:52",1
"17/06/13","09:00",0.0,20.3,60.0,1008.6,64.0,0.7,2.0,330.2,0.28,12.3,19.7,"08:59:20",1
"17/06/13","09:10",0.0,19.6,65.1,1008.6,310.2,1.1,2.9,345.7,0.14,12.9,19.7,"09:06:32",1
"17/06/13","09:20",0.0,20.1,62.3,1008.3,293.9,1.3,3.6,341.1,0.26,12.7,19.8,"09:12:48",1
"17/06/13","09:30",0.0,19.6,63.1,1008.1,330.9,1.2,3.2,335.9,0.15,12.4,20.1,"09:26:32",1
"17/06/13","09:40",0.0,19.3,66.4,1008.1,287.0,1.5,3.7,324.6,0.11,12.9,20.0,"09:32:00",1
"17/06/13","09:50",0.0,19.5,63.2,1008.3,294.3,1.8,4.7,33.9,0.17,12.4,20.2,"09:47:36",1
"17/06/13","10:00",0.0,19.4,64.5,1008.1,338.7,2.6,4.2,338.8,0.14,12.6,20.2,"09:54:08",1
"17/06/13","10:10",0.0,19.9,60.3,1008.1,335.1,2.3,4.1,345.1,0.23,12.0,20.3,"10:04:08",1
"17/06/13","10:20",0.0,21.7,53.7,1007.8,331.0,2.1,4.0,329.8,0.42,12.0,20.4,"10:12:56",1
"17/06/13","10:30",0.0,23.4,48.1,1007.6,27.9,1.0,2.7,354.1,0.66,11.8,21.0,"10:25:44",1
"17/06/13","10:40",0.0,22.2,51.3,1007.4,337.8,1.7,4.1,353.8,0.42,11.7,21.1,"10:35:12",1
"17/06/13","10:50",0.0,20.8,53.9,1007.1,344.2,2.2,4.7,325.6,0.16,11.2,21.2,"10:46:48",1
"17/06/13","11:00",0.0,22.7,51.5,1006.9,339.3,1.1,3.1,342.8,0.43,12.2,21.6,"10:50:02",1
"17/06/13","11:10",0.0,22.8,47.9,1006.7,299.3,1.2,3.5,336.2,0.57,11.2,21.7,"11:07:28",1
"17/06/13","11:20",0.0,21.8,53.8,1006.9,327.2,2.1,4.3,338.8,0.23,12.1,21.8,"11:18:16",1
"17/06/13","11:30",0.0,21.0,56.3,1006.9,345.8,3.1,6.2,330.8,0.19,12.0,21.7,"11:26:00",1
"17/06/13","11:40",0.0,20.6,55.8,1006.9,334.7,3.4,7.2,341.7,0.18,11.5,21.8,"11:30:56",1
"17/06/13","11:50",0.0,20.7,56.6,1006.7,328.0,3.6,7.3,327.7,0.18,11.8,21.7,"11:42:16",1
"17/06/13","12:00",0.0,21.1,56.4,1006.7,335.2,2.7,5.7,333.6,0.20,12.1,22.0,"11:56:48",1
"17/06/13","12:10",0.0,21.4,53.8,1006.7,335.7,2.3,5.8,334.2,0.24,11.7,21.8,"12:08:16",1
"17/06/13","12:20",0.0,22.0,51.8,1006.7,328.4,2.2,3.9,327.2,0.30,11.7,21.9,"12:10:16",1
"17/06/13","12:30",0.0,23.5,50.5,1006.2,358.5,1.1,3.1,332.9,0.49,12.7,22.1,"12:23:20",1
"17/06/13","12:40",0.0,23.4,50.9,1006.2,44.5,1.0,2.8,34.0,0.39,12.7,22.3,"12:36:00",1
"17/06/13","12:50",0.0,23.1,49.1,1006.0,1.8,1.5,3.3,348.4,0.46,11.9,22.5,"12:45:28",1
"17/06/13","13:00",0.0,22.4,49.9,1006.0,2.6,1.7,3.9,348.2,0.20,11.5,22.7,"12:56:16",1
"17/06/13","13:10",0.0,21.9,53.8,1005.7,348.3,2.3,4.3,348.6,0.19,12.2,22.6,"13:03:52",1
"17/06/13","13:20",0.0,24.1,50.7,1005.5,344.7,2.3,4.3,326.4,0.52,13.3,22.5,"13:15:36",1
"17/06/13","13:30",0.0,24.1,48.8,1005.5,343.2,3.4,6.2,330.3,0.65,12.7,22.7,"13:23:04",1
"17/06/13","13:40",0.0,24.4,46.6,1005.7,344.7,2.2,6.0,359.1,0.68,12.3,22.6,"13:38:00",1
"17/06/13","13:50",0.0,23.9,48.1,1005.2,345.5,2.3,4.9,305.1,0.60,12.3,22.7,"13:46:24",1
"17/06/13","14:00",0.0,24.6,47.0,1005.2,329.2,1.8,3.5,337.9,0.59,12.6,22.8,"13:53:36",1
"17/06/13","14:10",0.0,25.2,45.6,1004.8,348.2,1.8,4.3,350.1,0.63,12.7,23.0,"14:02:00",1
"17/06/13","14:20",0.0,24.8,45.6,1005.0,346.8,2.6,4.8,5.2,0.59,12.3,23.0,"14:15:20",1
"17/06/13","14:30",0.0,25.1,42.9,1005.0,347.2,2.3,4.8,346.1,0.58,11.7,23.4,"14:23:28",1
"17/06/13","14:40",0.0,24.0,44.9,1004.8,343.7,2.2,4.8,328.2,0.40,11.4,23.7,"14:32:56",1
"17/06/13","14:50",0.0,23.1,46.1,1004.8,343.8,1.6,3.4,334.1,0.15,10.9,23.6,"14:40:24",1
"17/06/13","15:00",0.0,23.7,47.4,1004.5,330.6,1.5,3.6,341.3,0.24,11.9,23.5,"14:50:02",1
"17/06/13","15:10",0.0,25.0,44.2,1005.0,333.5,2.1,3.9,351.3,0.46,12.0,23.6,"15:02:16",1
"17/06/13","15:20",0.0,25.2,43.2,1004.5,344.4,1.7,4.0,331.7,0.46,11.9,23.6,"15:19:04",1
"17/06/13","15:30",0.0,24.9,45.0,1004.5,342.1,1.3,3.3,341.8,0.31,12.2,23.7,"15:26:16",1
"17/06/13","15:40",0.0,23.9,47.1,1004.5,340.8,2.0,4.9,343.7,0.25,12.0,23.6,"15:38:00",1
"17/06/13","15:50",0.0,25.3,45.2,1004.5,328.6,2.3,4.4,330.5,0.47,12.6,23.5,"15:40:24",1
"17/06/13","16:00",0.0,24.8,45.3,1004.3,338.5,3.4,6.2,333.8,0.43,12.2,23.7,"15:55:28",1
"17/06/13","16:10",0.0,24.5,44.8,1004.8,335.1,3.0,5.9,334.4,0.39,11.8,23.7,"16:06:56",1
"17/06/13","16:20",0.0,24.9,44.1,1004.5,322.8,2.1,4.8,337.1,0.35,11.9,23.7,"16:10:32",1
"17/06/13","16:30",0.0,23.4,46.2,1004.3,334.2,2.6,4.0,323.2,0.09,11.2,23.6,"16:28:00",1
"17/06/13","16:40",0.0,22.3,50.7,1004.5,330.6,2.6,3.9,325.3,0.03,11.6,23.5,"16:30:56",1
"17/06/13","16:50",0.0,22.6,51.6,1004.8,344.2,2.5,4.2,7.2,0.14,12.2,23.5,"16:45:36",1
"17/06/13","17:00",0.0,23.3,48.0,1004.8,339.2,2.2,5.7,339.1,0.15,11.7,23.4,"16:55:20",1
"17/06/13","17:10",0.0,23.5,49.4,1004.8,342.2,2.3,4.1,350.6,0.03,12.3,23.4,"17:03:52",1
"17/06/13","17:20",0.0,23.6,47.0,1004.8,339.3,2.7,5.0,346.7,0.02,11.7,23.2,"17:14:00",1
"17/06/13","17:30",0.0,23.6,48.6,1004.5,343.9,2.7,5.1,331.4,0.02,12.2,23.2,"17:24:48",1
"17/06/13","17:40",0.0,23.4,49.4,1004.8,345.2,2.6,5.4,348.4,0.02,12.3,23.0,"17:37:44",1
"17/06/13","17:50",0.0,23.2,49.5,1005.0,348.1,2.6,6.3,351.9,0.02,12.1,22.9,"17:49:20",1
"17/06/13","18:00",0.0,23.0,50.5,1004.8,340.5,2.5,4.5,345.0,0.02,12.2,22.8,"17:54:00",1
"17/06/13","18:10",0.0,22.6,52.0,1005.2,341.9,3.0,5.2,342.7,0.03,12.3,22.8,"18:04:16",1
"17/06/13","18:20",0.0,22.2,53.0,1005.5,342.1,2.6,5.6,341.6,0.02,12.2,22.6,"18:15:44",1
"17/06/13","18:30",0.0,21.8,53.9,1005.5,339.7,2.8,5.8,345.8,0.03,12.1,22.6,"18:29:52",1
"17/06/13","18:40",0.0,21.4,56.4,1005.7,340.3,2.7,6.3,332.1,0.03,12.4,22.4,"18:38:08",1
"17/06/13","18:50",0.0,20.9,57.1,1005.7,337.3,3.1,6.2,320.6,0.01,12.1,22.3,"18:42:00",1
"17/06/13","19:00",0.0,20.4,58.6,1005.5,338.9,3.0,6.6,343.0,0.00,12.1,22.2,"18:58:56",1
"17/06/13","19:10",0.0,20.1,60.3,1005.7,333.3,2.6,3.9,345.1,0.00,12.2,22.1,"19:09:36",1
"17/06/13","19:20",0.0,19.8,61.0,1006.0,337.3,2.6,5.8,336.4,0.00,12.1,22.0,"19:16:24",1
"17/06/13","19:30",0.0,19.5,62.5,1006.0,335.1,3.2,5.8,335.4,0.00,12.2,21.8,"19:28:48",1
"17/06/13","19:40",0.0,19.2,63.4,1005.7,331.6,3.1,6.7,333.0,0.00,12.1,21.7,"19:32:00",1
"17/06/13","19:50",0.0,19.0,64.3,1006.2,338.1,3.2,6.5,339.2,0.00,12.2,21.5,"19:48:24",1
"17/06/13","20:00",0.0,18.6,65.2,1006.2,337.0,3.0,5.9,341.6,0.00,12.0,21.4,"19:56:24",1
"17/06/13","20:10",0.0,18.4,65.2,1006.0,343.7,2.6,5.4,331.6,0.00,11.8,21.2,"20:00:48",1
"17/06/13","20:20",0.0,18.3,65.7,1006.0,345.2,2.1,4.5,0.3,0.00,11.8,21.2,"20:13:28",1
"17/06/13","20:30",0.0,18.1,66.0,1006.2,340.9,2.1,4.4,345.1,0.00,11.7,21.1,"20:29:36",1
"17/06/13","20:40",0.0,17.9,67.0,1006.4,340.0,2.1,4.8,334.9,0.00,11.7,20.7,"20:37:28",1
"17/06/13","20:50",0.0,17.8,67.3,1006.4,349.1,2.0,3.9,339.6,0.00,11.7,21.0,"20:42:40",1
"17/06/13","21:00",0.0,17.8,67.2,1006.7,358.1,2.1,5.0,4.5,0.00,11.7,20.7,"20:57:52",1
"17/06/13","21:10",0.0,17.7,67.5,1006.2,353.7,1.7,3.4,344.8,0.00,11.7,20.5,"21:01:20",1
"17/06/13","21:20",0.0,17.3,68.6,1006.9,314.0,1.2,2.8,339.4,0.00,11.5,20.6,"21:10:16",1
"17/06/13","21:30",0.0,16.9,69.5,1006.7,274.5,0.7,1.4,336.2,0.00,11.3,20.5,"21:23:52",1
"17/06/13","21:40",0.0,16.6,70.7,1006.7,316.8,0.6,1.1,330.2,0.00,11.3,20.1,"21:32:00",1
"17/06/13","21:50",0.0,16.3,72.3,1006.9,310.5,1.0,1.6,324.0,0.00,11.4,19.9,"21:40:24",1
"17/06/13","22:00",0.0,16.1,73.4,1006.7,298.0,1.1,2.0,308.0,0.00,11.4,19.8,"21:59:28",1
"17/06/13","22:10",0.0,16.1,74.2,1006.9,309.1,1.5,2.6,330.3,0.00,11.5,19.9,"22:07:12",1
"17/06/13","22:20",0.0,16.1,74.2,1007.1,294.5,1.3,4.1,343.9,0.00,11.5,19.9,"22:11:04",1
"17/06/13","22:30",0.0,15.7,75.0,1007.1,277.3,1.1,1.7,314.1,0.00,11.3,19.7,"22:28:08",1
"17/06/13","22:40",0.0,15.5,76.0,1006.9,273.8,1.0,1.6,278.8,0.00,11.3,19.7,"22:32:24",1
"17/06/13","22:50",0.0,15.2,77.6,1006.9,298.1,0.6,1.1,327.7,0.00,11.4,19.5,"22:40:40",1
"17/06/13","23:00",0.0,14.9,79.1,1006.4,285.0,1.0,1.3,304.9,0.00,11.4,19.7,"22:52:32",1
"17/06/13","23:10",0.0,14.8,80.3,1006.9,303.9,1.0,1.6,326.1,0.00,11.5,19.3,"23:00:48",1
"17/06/13","23:20",0.0,14.9,80.5,1006.9,309.3,1.0,2.0,329.9,0.00,11.6,19.1,"23:19:36",1
"17/06/13","23:30",0.0,15.1,80.6,1006.7,332.5,1.3,2.4,346.2,0.00,11.8,19.4,"23:23:44",1
"17/06/13","23:40",0.0,15.3,79.6,1006.7,320.9,2.0,3.3,331.4,0.00,11.8,19.3,"23:31:20",1
"17/06/13","23:50",0.0,15.3,79.5,1006.7,315.6,1.3,3.1,338.4,0.00,11.8,19.2,"23:44:40",1
"17/06/13","24:00",0.0,15.2,79.7,1006.7,308.5,1.2,1.8,332.8,0.00,11.8,19.1,"23:53:52",1
